This is the latest recevied weather packets stored in our database for station/object IW3HBX-3. If no packets are shown the sender has not sent any weather packets the latest 10 day(s).
| Time | Temp. | Humidity | Pressure | Rain* | Wind** | Luminosity | Snow |
|---|---|---|---|---|---|---|---|
| 1777534844 | 12.78° C | 46% | 1025.8 hPa | 0 mm | - | 337 W/m² | - |
| 1777534545 | 12.78° C | 47% | 1025.8 hPa | 0 mm | - | 315 W/m² | - |
| 1777534244 | 12.78° C | 47% | 1025.8 hPa | 0 mm | - | 320 W/m² | - |
| 1777533944 | 12.78° C | 47% | 1025.8 hPa | 0 mm | - | 231 W/m² | - |
| 1777533644 | 12.22° C | 47% | 1026 hPa | 0 mm | - | 198 W/m² | - |
| 1777533343 | 12.22° C | 47% | 1025.8 hPa | 0 mm | - | 191 W/m² | - |
| 1777533043 | 12.22° C | 46% | 1025.7 hPa | 0 mm | - | 188 W/m² | - |
| 1777532743 | 12.78° C | 46% | 1025.8 hPa | 0 mm | - | 188 W/m² | - |
| 1777532443 | 12.78° C | 46% | 1025.8 hPa | 0 mm | - | 186 W/m² | - |
| 1777532143 | 12.78° C | 46% | 1025.6 hPa | 0 mm | - | 189 W/m² | - |
| 1777531842 | 12.22° C | 46% | 1025.5 hPa | 0 mm | - | 168 W/m² | - |
| 1777531542 | 12.22° C | 46% | 1025.5 hPa | 0 mm | - | 166 W/m² | - |
| 1777531242 | 12.22° C | 46% | 1025.5 hPa | 0 mm | - | 159 W/m² | - |
| 1777530941 | 12.22° C | 47% | 1025.4 hPa | 0 mm | - | 159 W/m² | - |
| 1777530642 | 12.78° C | 47% | 1025.4 hPa | 0 mm | - | 180 W/m² | - |
| 1777530342 | 12.78° C | 47% | 1025.3 hPa | 0 mm | - | 182 W/m² | - |
| 1777530042 | 12.22° C | 48% | 1025.2 hPa | 0 mm | - | 181 W/m² | - |
| 1777529742 | 12.22° C | 49% | 1025.2 hPa | 0 mm | - | 208 W/m² | - |
| 1777529442 | 12.22° C | 49% | 1025.1 hPa | 0 mm | - | 208 W/m² | - |
| 1777529142 | 12.22° C | 49% | 1025.2 hPa | 0 mm | - | 159 W/m² | - |
| 1777528842 | 11.67° C | 48% | 1025.2 hPa | 0 mm | - | 224 W/m² | - |
| 1777528542 | 11.67° C | 49% | 1025 hPa | 0 mm | - | 140 W/m² | - |
| 1777528242 | 11.67° C | 49% | 1025 hPa | 0 mm | - | 118 W/m² | - |
| 1777527942 | 11.67° C | 49% | 1025 hPa | 0 mm | - | 106 W/m² | - |
| 1777527642 | 11.67° C | 49% | 1025 hPa | 0 mm | - | 92 W/m² | - |
* Rain latest hour (hover to see other rain measurements)
** Current wind speed in m/s (hover to see current wind gust speed)